Home > Weather > Bolton > Past weeks

Flag for United Kingdom Past Weather in Bolton, England, United Kingdom — Yesterday and Last 2 Weeks

Now
64 °F

Scattered clouds.


Feels Like: 64 °F
Forecast: 56 / 62 °F
Wind: 15 mph from Southwest

Location: Manchester Airport

Current Time: Jul 24, 2016 at 9:27:22 PM

Latest Report: Jul 24, 2016 at 8:50 PM


Visibility: N/A

Pressure: 29.98 "Hg

Humidity: 73%

Dew Point: 55 °F

Location of BoltonLocation

Past Weather in Bolton — Graph

°F

Bolton Temperature Yesterday

Maximum temperature yesterday: 72 °F (at 2:20 PM)
Minimum temperature yesterday: 57 °F (at 4:20 AM)
Average temperature yesterday: 65 °F

High & Low Weather Summary for the Past Weeks

 TemperatureHumidityPressure
High86 °F (Jul 19, 3:20 PM)100% (Jul 11, 6:50 AM)30.30 "Hg (Jul 11, 6:50 AM)
Low48 °F (Jul 13, 12:20 AM)43% (Jul 19, 2:50 PM)29.47 "Hg (Jul 11, 4:20 AM)
Average63 °F80%30.01 "Hg
* Reported Jul 9 8:20 PM — Jul 24 8:20 PM, Bolton, Weather by CustomWeather, © 2016

Note: Actual official high and low records may vary slightly from our data, if they occured in-between our weather recording intervals... More about our weather records

Advertising

Bolton Weather History for the Previous 24 Hours

Scroll right to see more
 ConditionsComfort  
Time TempWeatherWind HumidityBarometerVisibility
8:20 PM
Sun, Jul 24
66 °FPartly sunny.12 mph83%29.95 "HgN/A
7:50 PM66 °FPartly sunny.10 mph88%29.95 "HgN/A
7:20 PM66 °FBroken clouds.9 mph88%29.95 "HgN/A
6:50 PM66 °FCloudy.12 mph88%29.95 "HgN/A
6:20 PM66 °FMostly cloudy.13 mph88%29.95 "HgN/A
5:50 PM66 °FBroken clouds.15 mph83%29.98 "HgN/A
5:20 PM66 °FBroken clouds.10 mph83%29.98 "Hg5 mi
4:50 PM68 °FPartly sunny.12 mph78%29.98 "HgN/A
4:20 PM68 °FBroken clouds.9 mph73%29.98 "HgN/A
3:50 PM68 °FPartly sunny.10 mph73%29.98 "HgN/A
3:20 PM70 °FPartly sunny.10 mph73%29.98 "HgN/A
2:50 PM68 °FBroken clouds.14 mph73%30.01 "HgN/A
2:20 PM68 °FBroken clouds.13 mph73%30.01 "HgN/A
1:50 PM68 °FCloudy.10 mph73%30.01 "HgN/A
1:20 PM68 °FBroken clouds.13 mph73%30.01 "HgN/A
12:50 PM68 °FPassing clouds.13 mph73%30.01 "HgN/A
12:20 PM68 °FPassing clouds.9 mph69%30.01 "HgN/A
11:50 AM68 °FScattered clouds.10 mph73%30.04 "HgN/A
11:20 AM68 °FScattered clouds.10 mph73%30.04 "HgN/A
10:50 AM68 °FScattered clouds.7 mph73%30.04 "HgN/A
10:20 AM66 °FScattered clouds.6 mph78%30.04 "HgN/A
9:50 AM66 °FScattered clouds.7 mph78%30.04 "HgN/A
9:20 AM66 °FScattered clouds.7 mph83%30.04 "HgN/A
8:50 AM64 °FScattered clouds.7 mph83%30.07 "HgN/A
8:20 AM63 °FScattered clouds.8 mph88%30.07 "HgN/A
7:50 AM63 °FPartly sunny.6 mph88%30.07 "HgN/A
7:20 AM61 °FPartly sunny.5 mph88%30.07 "HgN/A
6:50 AM59 °FPartly sunny.2 mph94%30.07 "HgN/A
6:20 AM59 °FScattered clouds.2 mph94%30.07 "HgN/A
5:50 AM59 °FPassing clouds.3 mph88%30.07 "HgN/A
5:20 AM59 °FClear.3 mph88%30.07 "Hg10 mi
4:50 AM59 °FClear.6 mph88%30.07 "Hg10 mi
4:20 AM59 °FPassing clouds.3 mph88%30.07 "HgN/A
3:50 AM59 °FPassing clouds.3 mph94%30.07 "HgN/A
3:20 AM57 °FOvercast.No wind94%30.09 "HgN/A
2:50 AM57 °FPassing clouds.2 mph94%30.09 "Hg6 mi
2:20 AM57 °FPassing clouds.2 mph94%30.09 "HgN/A
1:50 AM59 °FClear.No wind88%30.09 "Hg10 mi
1:20 AM59 °FClear.No wind88%30.09 "Hg10 mi
12:50 AM61 °FClear.No wind83%30.09 "Hg10 mi
12:20 AM63 °FPassing clouds.2 mph77%30.12 "HgN/A
11:50 PM
Sat, Jul 23
64 °FPassing clouds.3 mph73%30.12 "HgN/A
11:20 PM64 °FPassing clouds.5 mph73%30.12 "HgN/A
10:50 PM64 °FOvercast.3 mph73%30.12 "HgN/A
10:20 PM64 °FClear.5 mph78%30.12 "Hg10 mi
9:50 PM64 °FSunny.6 mph73%30.12 "Hg10 mi
9:20 PM66 °FPartly sunny.8 mph68%30.12 "HgN/A
Weather by CustomWeather, © 2016

See weather overviewHow to use our weather pages